Volver al catálogo

COSMOS 2251 DEB

ActivoLEO
NORAD 35646·DEBRIS·🇷🇺 Russia

Lanzado Jun 16, 1993 desde Plesetsk Cosmodrome

Loading…

Próximos Pases (próximas 24 horas)

TLE

ActualizadoSource: Space-Track

Época: Sep 14, 2026, 14:08 UTC

1 35646U 93036ANM 26257.58917078  .00000155  00000-0  16983-3 0  9993
2 35646  73.8716 338.1063 0457856  40.6721  22.9594 13.41211243855569

Sigue COSMOS 2251 DEB en tiempo real con AllMySat

Download on the App Store